GFSNW_700_temp_147.txt.gz
Temp
-8 -7 -8 -8 -7 -6 -6 -6 -6 -5 -5 -5 -5 -5 -4 -4 -3 -3 -3 -3 -2 -1 -1 -1 -0 0 -0 -2 -2 -1 -1 -1 -0 1 1 0 -1 -1 -0 -0 0 1 -1 -1
-8 -8 -7 -8 -9 -8 -7 -7 -7 -6 -6 -6 -4 -4 -4 -4 -5 -4 -4 -4 -3 -2 -1 -2 -2 -1 -2 -2 -2 -1 -2 -1 -0 1 0 -1 -2 -1 -1 -1 -2 -2 -2 -1
-8 -8 -7 -8 -8 -9 -8 -8 -7 -7 -7 -6 -6 -6 -5 -5 -5 -4 -5 -4 -3 -3 -2 -2 -2 -3 -3 -2 -3 -2 -3 -2 -1 -0 0 -1 -1 -1 -1 -1 -2 -2 -2 -2
-9 -8 -7 -8 -8 -9 -9 -8 -7 -6 -7 -6 -5 -6 -6 -4 -5 -5 -5 -4 -4 -4 -4 -3 -3 -3 -4 -4 -3 -3 -4 -3 -3 -2 -2 -2 -2 -2 -2 -2 -3 -3 -3 -2
-9 -8 -7 -8 -8 -9 -8 -8 -8 -7 -6 -6 -6 -6 -6 -5 -5 -6 -5 -5 -5 -4 -4 -3 -3 -3 -4 -3 -4 -4 -4 -4 -5 -5 -4 -4 -3 -4 -4 -4 -4 -4 -3 -3
-9 -8 -8 -7 -8 -9 -8 -8 -8 -8 -7 -7 -6 -6 -6 -5 -6 -6 -6 -5 -5 -5 -5 -4 -4 -4 -4 -4 -4 -5 -4 -5 -4 -4 -3 -3 -3 -3 -3 -3 -3 -3 -2 -2
-9 -8 -8 -8 -8 -9 -7 -8 -9 -9 -7 -7 -7 -7 -6 -6 -6 -7 -7 -5 -5 -5 -5 -5 -5 -5 -6 -6 -6 -5 -5 -5 -5 -4 -4 -3 -3 -3 -3 -3 -3 -2 -2 -3
-9 -8 -8 -8 -8 -9 -8 -8 -9 -9 -8 -7 -7 -7 -6 -7 -7 -8 -7 -5 -7 -5 -5 -6 -6 -6 -6 -6 -6 -6 -6 -5 -5 -4 -3 -2 -2 -2 -2 -3 -3 -3 -4 -4
-10 -9 -8 -8 -8 -9 -9 -9 -9 -9 -8 -8 -8 -8 -8 -8 -8 -8 -8 -6 -6 -6 -7 -7 -5 -4 -4 -3 -5 -5 -6 -6 -5 -5 -4 -3 -2 -3 -4 -5 -4 -5 -5 -6
-10 -9 -9 -8 -9 -9 -9 -9 -9 -9 -9 -9 -9 -8 -8 -8 -8 -8 -8 -8 -7 -7 -8 -7 -5 -4 -4 -4 -4 -5 -6 -5 -5 -5 -5 -3 -3 -4 -4 -5 -4 -6 -6 -7
-10 -10 -9 -9 -9 -9 -10 -9 -9 -9 -9 -9 -9 -9 -8 -9 -8 -8 -8 -9 -9 -9 -8 -7 -5 -5 -4 -5 -4 -3 -4 -5 -5 -5 -5 -4 -3 -5 -5 -5 -6 -6 -6 -7
-10 -9 -9 -9 -9 -9 -9 -10 -9 -9 -10 -9 -9 -9 -9 -9 -9 -9 -8 -8 -8 -8 -8 -6 -5 -5 -5 -5 -5 -4 -4 -4 -4 -3 -4 -4 -5 -5 -5 -6 -6 -7 -7 -7
-10 -9 -9 -9 -9 -9 -9 -10 -9 -9 -9 -10 -9 -9 -9 -9 -9 -9 -8 -8 -7 -8 -8 -7 -7 -7 -6 -5 -5 -5 -5 -5 -5 -5 -5 -5 -5 -6 -6 -6 -7 -7 -7 -7
-10 -10 -9 -9 -9 -9 -9 -9 -10 -10 -10 -10 -10 -10 -9 -9 -9 -9 -9 -8 -8 -8 -8 -8 -8 -8 -7 -7 -6 -6 -6 -6 -6 -6 -6 -6 -6 -6 -6 -7 -7 -7 -7 -7
-10 -10 -10 -10 -10 -9 -9 -10 -10 -10 -10 -10 -10 -10 -9 -9 -9 -9 -9 -9 -9 -9 -9 -8 -9 -8 -8 -8 -8 -7 -7 -6 -6 -6 -6 -6 -6 -6 -6 -6 -7 -7 -7 -7
-9 -10 -10 -11 -10 -11 -10 -10 -10 -10 -10 -9 -9 -9 -9 -9 -9 -9 -9 -9 -9 -9 -9 -9 -9 -9 -9 -9 -8 -7 -7 -7 -7 -7 -7 -7 -7 -6 -6 -7 -7 -7 -8 -8
-11 -11 -11 -11 -11 -11 -11 -10 -10 -10 -10 -10 -10 -10 -9 -9 -9 -10 -10 -10 -10 -10 -9 -9 -10 -10 -9 -9 -9 -8 -8 -7 -7 -7 -7 -7 -7 -8 -6 -7 -7 -8 -8 -8
-12 -12 -12 -12 -11 -11 -11 -10 -10 -10 -10 -10 -10 -10 -10 -9 -9 -10 -10 -10 -10 -10 -9 -10 -9 -9 -9 -9 -9 -9 -8 -8 -8 -8 -7 -7 -7 -7 -7 -7 -7 -7 -8 -8
-13 -13 -12 -12 -12 -11 -12 -11 -11 -11 -11 -11 -10 -10 -11 -10 -10 -11 -10 -10 -10 -10 -10 -10 -10 -9 -9 -9 -9 -9 -8 -8 -8 -7 -7 -7 -7 -7 -7 -7 -7 -7 -8 -8
-13 -13 -12 -12 -12 -12 -12 -12 -12 -12 -12 -11 -11 -10 -10 -10 -10 -10 -10 -10 -10 -10 -10 -9 -9 -9 -8 -9 -8 -8 -8 -8 -8 -8 -7 -7 -7 -7 -7 -7 -7 -8 -8 -8
-13 -13 -13 -13 -13 -13 -13 -13 -13 -13 -12 -11 -10 -10 -10 -11 -10 -10 -10 -10 -10 -10 -8 -9 -8 -8 -6 -7 -6 -6 -6 -7 -8 -8 -8 -7 -8 -8 -8 -8 -8 -8 -8 -8
-13 -13 -13 -13 -13 -13 -13 -13 -12 -12 -11 -11 -11 -10 -10 -11 -10 -11 -10 -10 -9 -9 -8 -9 -8 -7 -7 -7 -7 -7 -6 -7 -6 -7 -7 -7 -8 -8 -8 -8 -8 -8 -8 -9
-14 -14 -14 -14 -13 -13 -13 -13 -12 -12 -11 -11 -11 -10 -10 -10 -11 -11 -10 -10 -9 -9 -9 -9 -7 -7 -7 -6 -7 -6 -7 -6 -7 -7 -7 -7 -8 -8 -8 -9 -8 -8 -9 -9
-14 -14 -14 -13 -13 -13 -12 -12 -12 -11 -11 -11 -10 -11 -11 -11 -10 -11 -10 -10 -9 -9 -9 -7 -7 -7 -7 -7 -6 -6 -6 -7 -7 -7 -7 -8 -9 -9 -9 -8 -8 -9 -9 -9
-13 -13 -13 -13 -13 -12 -12 -11 -11 -11 -11 -11 -11 -11 -11 -11 -11 -11 -10 -10 -9 -9 -8 -7 -7 -7 -7 -7 -7 -7 -7 -7 -7 -8 -8 -9 -9 -9 -9 -9 -9 -9 -9 -10
-13 -13 -12 -12 -12 -12 -12 -12 -11 -11 -10 -11 -11 -11 -11 -11 -10 -10 -10 -9 -8 -8 -8 -7 -7 -7 -7 -7 -7 -8 -8 -8 -8 -9 -9 -9 -9 -9 -9 -9 -9 -9 -10 -10
-13 -13 -13 -13 -12 -12 -11 -11 -11 -11 -10 -10 -11 -11 -11 -10 -10 -10 -9 -9 -9 -8 -8 -8 -8 -8 -8 -8 -8 -8 -9 -9 -9 -9 -9 -9 -9 -9 -9 -9 -9 -10 -10 -11

GFSNW_700_temp_150.txt.gz
Temp
-8 -8 -8 -7 -7 -7 -8 -8 -7 -6 -6 -6 -6 -5 -5 -5 -2 -2 -2 -2 -1 -1 -0 -0 0 1 1 -0 -0 -0 0 0 -0 1 1 1 1 1 1 1 1 1 0 -0
-8 -8 -8 -8 -7 -7 -8 -8 -8 -7 -7 -7 -6 -4 -4 -4 -4 -4 -4 -3 -2 -1 -2 -1 -1 0 -1 -1 -1 -1 -1 -1 -0 0 1 1 1 0 0 0 -1 -1 -1 -1
-8 -9 -8 -8 -8 -7 -7 -8 -8 -7 -7 -6 -5 -5 -5 -5 -4 -4 -4 -3 -3 -2 -1 -2 -1 -1 -2 -2 -1 -1 -1 -1 -0 0 1 0 -0 -1 0 -0 -1 -1 -1 -1
-9 -9 -9 -8 -8 -7 -8 -8 -8 -7 -7 -7 -6 -6 -5 -5 -5 -4 -4 -4 -4 -3 -3 -2 -2 -2 -3 -2 -2 -2 -2 -2 -2 -1 -1 -1 -1 -1 -1 -1 -1 -1 -1 -2
-9 -9 -9 -9 -8 -8 -8 -8 -6 -8 -7 -6 -6 -6 -6 -5 -5 -4 -4 -5 -4 -4 -3 -2 -2 -3 -3 -3 -3 -3 -3 -3 -3 -3 -3 -3 -2 -2 -3 -3 -3 -3 -3 -3
-10 -9 -9 -9 -8 -8 -8 -8 -7 -7 -6 -7 -7 -6 -5 -5 -5 -5 -5 -5 -5 -4 -3 -3 -3 -2 -3 -2 -3 -3 -4 -3 -4 -4 -2 -2 -2 -2 -2 -2 -2 -2 -2 -2
-11 -10 -9 -9 -8 -7 -8 -8 -8 -8 -7 -7 -6 -7 -6 -5 -6 -5 -5 -5 -5 -5 -5 -5 -5 -4 -3 -3 -4 -3 -4 -4 -4 -3 -3 -3 -3 -2 -2 -2 -2 -2 -2 -2
-12 -12 -10 -9 -8 -8 -8 -8 -9 -8 -8 -7 -7 -6 -6 -6 -7 -7 -5 -6 -6 -6 -6 -5 -5 -5 -5 -4 -4 -5 -5 -4 -4 -4 -3 -3 -2 -2 -2 -2 -2 -3 -3 -3
-12 -12 -11 -9 -8 -8 -8 -8 -8 -8 -8 -7 -6 -6 -7 -7 -7 -7 -7 -8 -7 -7 -6 -6 -5 -4 -4 -4 -4 -4 -5 -5 -5 -5 -4 -3 -2 -2 -3 -3 -3 -3 -4 -5
-12 -12 -11 -9 -9 -8 -9 -8 -8 -8 -8 -8 -7 -7 -7 -7 -7 -7 -7 -7 -7 -7 -6 -6 -5 -5 -4 -3 -3 -5 -4 -5 -5 -5 -5 -4 -3 -2 -4 -4 -4 -4 -5 -6
-12 -12 -12 -10 -9 -9 -8 -8 -9 -8 -9 -8 -7 -7 -7 -7 -8 -7 -8 -8 -8 -6 -7 -6 -6 -5 -4 -4 -3 -3 -4 -5 -5 -5 -5 -4 -3 -4 -4 -4 -5 -5 -5 -6
-12 -12 -12 -9 -9 -9 -9 -8 -9 -9 -9 -8 -8 -8 -7 -8 -8 -7 -7 -7 -8 -7 -7 -7 -6 -5 -4 -4 -4 -4 -4 -4 -4 -4 -4 -4 -4 -4 -5 -5 -5 -5 -5 -5
-12 -12 -11 -10 -9 -9 -9 -9 -9 -9 -9 -9 -8 -8 -8 -7 -9 -7 -8 -8 -7 -8 -8 -7 -7 -6 -5 -5 -4 -4 -4 -4 -4 -4 -4 -4 -5 -6 -6 -6 -5 -6 -6 -6
-11 -11 -11 -10 -9 -9 -9 -9 -9 -9 -9 -9 -9 -9 -9 -9 -9 -8 -8 -8 -8 -7 -8 -8 -7 -7 -6 -6 -6 -6 -5 -5 -5 -5 -5 -5 -5 -5 -6 -6 -5 -6 -7 -6
-11 -10 -9 -10 -9 -9 -9 -9 -9 -10 -9 -9 -9 -9 -9 -9 -9 -9 -9 -8 -8 -8 -9 -8 -8 -8 -8 -7 -7 -7 -6 -6 -6 -6 -5 -6 -6 -6 -6 -6 -6 -6 -7 -7
-10 -10 -10 -9 -9 -9 -9 -9 -9 -10 -10 -9 -9 -10 -9 -9 -9 -9 -9 -8 -8 -8 -8 -8 -8 -8 -8 -8 -8 -7 -7 -6 -5 -6 -6 -6 -6 -6 -7 -6 -6 -6 -6 -7
-10 -9 -10 -10 -9 -9 -9 -9 -9 -10 -10 -9 -10 -10 -9 -9 -9 -9 -9 -8 -9 -9 -9 -9 -8 -9 -9 -8 -8 -7 -7 -7 -7 -7 -7 -7 -7 -7 -7 -7 -6 -7 -7 -7
-9 -10 -10 -10 -10 -9 -10 -10 -10 -10 -10 -10 -10 -10 -10 -10 -9 -10 -9 -9 -9 -9 -9 -9 -9 -9 -9 -9 -8 -6 -6 -6 -7 -7 -7 -7 -7 -7 -7 -7 -6 -7 -7 -7
-10 -11 -11 -11 -11 -11 -11 -11 -10 -10 -10 -9 -9 -9 -10 -9 -10 -10 -9 -9 -9 -9 -9 -9 -10 -9 -9 -8 -7 -6 -7 -8 -8 -8 -7 -7 -7 -7 -7 -7 -7 -7 -7 -7
-11 -11 -11 -11 -12 -12 -11 -11 -10 -10 -10 -9 -9 -9 -10 -9 -10 -10 -10 -10 -10 -10 -9 -9 -9 -8 -8 -6 -6 -8 -8 -8 -8 -8 -8 -7 -7 -7 -7 -7 -7 -7 -7 -7
-11 -11 -11 -12 -12 -11 -10 -10 -10 -10 -10 -9 -9 -9 -10 -10 -10 -10 -10 -9 -10 -10 -9 -9 -8 -8 -6 -7 -7 -7 -7 -7 -7 -8 -8 -8 -8 -7 -7 -7 -8 -8 -8 -8
-10 -10 -11 -12 -11 -11 -11 -11 -11 -11 -11 -9 -8 -8 -9 -10 -10 -10 -10 -10 -10 -9 -8 -8 -8 -7 -7 -7 -7 -6 -7 -7 -7 -7 -7 -8 -8 -8 -7 -8 -8 -8 -9 -8
-12 -12 -12 -12 -12 -13 -12 -13 -12 -11 -9 -9 -8 -8 -10 -10 -10 -10 -10 -9 -10 -9 -9 -8 -8 -7 -7 -7 -6 -6 -6 -6 -6 -7 -7 -7 -7 -7 -8 -8 -8 -8 -9 -8
-12 -12 -12 -12 -12 -12 -12 -11 -11 -11 -11 -11 -10 -10 -10 -10 -10 -11 -10 -10 -10 -9 -9 -8 -7 -7 -7 -7 -7 -7 -6 -6 -6 -7 -7 -7 -8 -8 -8 -8 -8 -9 -9 -9
-13 -13 -13 -12 -12 -12 -11 -11 -11 -11 -11 -11 -11 -11 -10 -11 -11 -10 -10 -10 -10 -9 -8 -8 -8 -7 -7 -7 -7 -7 -7 -7 -7 -8 -8 -8 -8 -9 -9 -9 -9 -9 -9 -9
-13 -13 -12 -12 -12 -12 -12 -12 -11 -11 -11 -11 -11 -10 -11 -11 -10 -11 -10 -9 -8 -8 -8 -8 -8 -8 -8 -7 -7 -7 -7 -8 -8 -8 -9 -9 -9 -9 -9 -9 -9 -9 -9 -9
-13 -13 -12 -12 -12 -12 -11 -11 -11 -11 -11 -11 -11 -11 -10 -10 -10 -10 -9 -9 -9 -9 -9 -8 -8 -8 -8 -8 -8 -8 -8 -8 -9 -9 -9 -9 -9 -9 -9 -9 -9 -9 -10 -10

GFSNW_700_temp_156.txt.gz
Temp
-7 -7 -8 -8 -8 -8 -8 -8 -7 -6 -6 -6 -6 -6 -4 -4 -4 -4 -4 -3 -2 -2 -1 -1 -1 -1 0 0 0 1 1 1 1 2 1 1 1 1 1 1 0 0 -0 -1
-8 -8 -8 -8 -9 -8 -8 -8 -7 -7 -7 -7 -7 -5 -5 -5 -6 -5 -5 -4 -4 -3 -3 -3 -3 -1 -1 -1 -0 -1 0 0 -0 -0 0 0 0 1 1 0 0 0 -2 -1
-8 -8 -8 -8 -9 -9 -8 -8 -8 -7 -7 -7 -6 -5 -6 -7 -5 -6 -5 -5 -5 -4 -3 -3 -3 -2 -2 -2 -2 -2 -1 -0 -0 -1 -0 -0 -0 -0 -0 -0 -0 -1 -1 -1
-9 -9 -8 -8 -9 -9 -9 -8 -7 -8 -8 -6 -6 -7 -6 -6 -6 -6 -6 -6 -5 -4 -4 -3 -3 -2 -2 -3 -3 -2 -3 -2 -1 -1 -1 -0 -1 -0 -1 -1 -1 -2 -0 -1
-10 -9 -9 -9 -9 -10 -10 -8 -8 -8 -7 -7 -8 -8 -6 -6 -5 -6 -5 -6 -4 -4 -5 -4 -4 -3 -3 -3 -3 -4 -4 -4 -2 -2 -2 -1 -1 -1 -1 -1 -1 -1 -1 -1
-10 -10 -9 -9 -9 -10 -10 -9 -8 -8 -8 -7 -8 -7 -5 -5 -6 -6 -6 -6 -6 -5 -4 -5 -4 -4 -4 -4 -4 -3 -3 -5 -4 -3 -2 -3 -3 -3 -1 -1 -1 -1 -1 -1
-12 -11 -10 -10 -10 -10 -10 -10 -9 -9 -8 -8 -7 -7 -7 -6 -6 -6 -6 -6 -6 -6 -5 -5 -5 -5 -4 -5 -4 -3 -3 -3 -3 -3 -3 -5 -3 -2 -2 -2 -2 -2 -2 -2
-12 -12 -12 -11 -11 -11 -11 -10 -10 -9 -9 -8 -7 -8 -7 -7 -7 -7 -7 -6 -7 -6 -6 -6 -6 -5 -6 -5 -4 -3 -4 -3 -4 -4 -4 -3 -3 -3 -2 -2 -2 -2 -2 -2
-13 -13 -13 -13 -12 -12 -11 -10 -10 -10 -10 -9 -8 -8 -7 -7 -7 -7 -7 -7 -7 -7 -6 -7 -6 -6 -6 -6 -4 -4 -4 -4 -5 -5 -4 -6 -4 -3 -2 -3 -3 -3 -3 -3
-14 -14 -14 -14 -13 -13 -12 -11 -12 -11 -10 -9 -9 -8 -7 -8 -7 -7 -7 -6 -7 -7 -7 -7 -7 -7 -6 -6 -4 -4 -5 -6 -6 -6 -5 -4 -4 -3 -3 -4 -3 -3 -3 -4
-14 -14 -14 -14 -14 -13 -13 -12 -12 -12 -10 -9 -9 -9 -7 -7 -8 -7 -6 -7 -7 -7 -7 -7 -7 -7 -6 -5 -4 -4 -5 -5 -5 -5 -6 -6 -4 -4 -4 -4 -4 -4 -4 -4
-14 -14 -14 -14 -14 -14 -13 -13 -12 -12 -12 -9 -9 -8 -7 -8 -8 -7 -7 -7 -6 -7 -8 -8 -7 -7 -7 -6 -5 -4 -5 -5 -5 -5 -5 -5 -5 -5 -5 -5 -5 -5 -5 -5
-14 -14 -14 -14 -14 -14 -13 -13 -13 -12 -12 -10 -9 -8 -8 -8 -8 -7 -7 -7 -7 -8 -8 -7 -7 -6 -6 -6 -6 -5 -5 -5 -5 -5 -5 -5 -5 -5 -5 -5 -6 -5 -5 -5
-14 -14 -14 -14 -14 -14 -14 -13 -13 -12 -11 -10 -8 -8 -8 -8 -7 -7 -7 -8 -8 -8 -8 -7 -7 -7 -7 -7 -6 -6 -6 -5 -5 -6 -5 -5 -5 -5 -5 -6 -6 -5 -6 -6
-14 -14 -14 -14 -14 -14 -14 -13 -12 -11 -9 -9 -9 -8 -9 -8 -8 -8 -8 -8 -8 -8 -8 -8 -8 -8 -8 -7 -7 -6 -6 -6 -6 -6 -6 -6 -6 -6 -6 -6 -6 -6 -7 -6
-14 -14 -14 -15 -14 -14 -14 -12 -12 -10 -10 -9 -9 -9 -8 -8 -8 -8 -8 -8 -8 -8 -8 -8 -8 -8 -8 -8 -8 -7 -6 -6 -6 -6 -6 -6 -6 -6 -6 -7 -6 -7 -7 -6
-14 -13 -13 -13 -14 -13 -12 -12 -10 -9 -9 -9 -9 -9 -9 -9 -9 -8 -8 -8 -8 -9 -9 -9 -8 -8 -8 -8 -8 -6 -6 -6 -6 -6 -6 -6 -7 -6 -6 -7 -7 -7 -6 -6
-13 -13 -13 -13 -13 -13 -12 -11 -9 -10 -9 -10 -9 -9 -9 -9 -8 -8 -8 -9 -9 -8 -9 -8 -8 -8 -9 -9 -8 -6 -6 -6 -7 -6 -6 -7 -6 -7 -7 -7 -7 -7 -7 -7
-12 -13 -13 -13 -13 -12 -11 -10 -9 -10 -10 -10 -9 -8 -8 -8 -8 -9 -9 -9 -9 -9 -9 -8 -9 -9 -9 -7 -7 -6 -6 -7 -7 -7 -7 -7 -7 -6 -7 -7 -7 -8 -7 -7
-13 -13 -12 -11 -11 -10 -11 -10 -10 -10 -10 -9 -8 -8 -7 -8 -9 -9 -9 -9 -9 -9 -8 -9 -9 -7 -7 -6 -7 -7 -7 -8 -8 -8 -7 -7 -8 -8 -8 -8 -8 -8 -8 -8
-12 -11 -10 -10 -10 -9 -10 -10 -10 -10 -9 -9 -8 -8 -8 -8 -8 -9 -9 -9 -9 -10 -9 -9 -9 -8 -6 -7 -7 -7 -7 -7 -7 -7 -7 -7 -7 -7 -8 -8 -8 -8 -8 -8
-10 -9 -9 -9 -10 -10 -10 -11 -10 -9 -9 -9 -9 -8 -9 -9 -10 -10 -10 -10 -9 -9 -9 -10 -9 -8 -7 -7 -7 -8 -7 -7 -7 -7 -7 -7 -7 -7 -7 -7 -8 -8 -8 -8
-10 -10 -10 -11 -10 -10 -10 -10 -9 -9 -9 -9 -9 -9 -9 -9 -9 -10 -10 -10 -10 -10 -10 -9 -9 -8 -8 -8 -7 -8 -8 -8 -7 -7 -7 -6 -6 -6 -7 -7 -7 -8 -8 -8
-10 -9 -9 -9 -9 -9 -9 -9 -9 -9 -9 -9 -9 -9 -9 -10 -10 -10 -10 -10 -10 -10 -10 -9 -9 -8 -8 -8 -8 -8 -8 -8 -7 -7 -6 -6 -6 -6 -7 -7 -8 -8 -8 -8
-9 -9 -10 -10 -9 -9 -9 -8 -8 -9 -9 -9 -10 -10 -10 -10 -11 -11 -10 -10 -10 -10 -9 -8 -8 -8 -8 -8 -8 -8 -8 -8 -8 -7 -7 -7 -6 -7 -8 -9 -8 -8 -8 -8
-10 -11 -11 -11 -10 -10 -10 -10 -10 -10 -10 -10 -10 -11 -11 -11 -11 -10 -10 -10 -10 -9 -9 -9 -9 -9 -9 -9 -9 -9 -8 -8 -8 -8 -7 -7 -8 -8 -9 -9 -9 -9 -9 -9
-12 -12 -12 -12 -12 -12 -12 -11 -11 -11 -12 -11 -11 -11 -11 -11 -11 -11 -11 -11 -10 -9 -9 -9 -9 -9 -9 -9 -9 -9 -9 -8 -8 -8 -8 -8 -8 -9 -9 -9 -9 -9 -9 -9

GFSNW_700_temp_159.txt.gz
Temp
-8 -7 -7 -7 -8 -8 -8 -8 -8 -8 -8 -8 -7 -5 -4 -4 -4 -5 -4 -4 -4 -3 -3 -3 -3 -2 -1 -0 -1 0 1 0 0 1 1 1 2 2 2 1 -0 -0 -1 -1
-8 -8 -8 -8 -9 -9 -8 -9 -8 -8 -8 -8 -7 -6 -5 -6 -5 -6 -5 -5 -5 -4 -4 -4 -4 -3 -2 -2 -3 -2 -0 -0 -0 -0 0 0 1 1 1 1 0 -0 -2 -1
-9 -9 -9 -8 -8 -9 -9 -9 -7 -8 -8 -7 -7 -6 -6 -6 -5 -6 -6 -6 -6 -5 -4 -4 -4 -4 -3 -3 -2 -3 -3 -3 -1 -1 0 0 0 0 0 -0 -1 -2 -1 0
-9 -9 -9 -9 -9 -9 -10 -9 -8 -8 -8 -7 -7 -8 -7 -6 -6 -7 -7 -6 -6 -6 -6 -5 -5 -4 -4 -3 -3 -3 -3 -4 -3 -2 -2 -0 -0 -1 -1 -1 -1 -1 -1 -0
-10 -10 -10 -9 -9 -10 -10 -10 -9 -8 -8 -8 -8 -7 -7 -7 -6 -8 -6 -7 -6 -6 -6 -5 -5 -5 -5 -5 -4 -3 -3 -3 -4 -5 -3 -4 -2 -2 -2 -2 -2 -2 -1 -1
-11 -10 -10 -10 -10 -10 -10 -10 -9 -9 -9 -8 -8 -7 -6 -6 -7 -7 -7 -7 -7 -7 -5 -6 -6 -6 -6 -5 -5 -5 -4 -5 -5 -5 -5 -4 -4 -3 -2 -1 -2 -2 -1 -1
-12 -12 -11 -11 -11 -11 -10 -10 -10 -10 -9 -9 -8 -8 -7 -7 -7 -7 -7 -7 -7 -6 -6 -7 -6 -6 -6 -6 -5 -5 -5 -4 -5 -5 -5 -6 -3 -2 -2 -2 -1 -2 -2 -2
-12 -12 -12 -12 -12 -11 -11 -10 -11 -10 -9 -9 -9 -8 -7 -8 -7 -8 -7 -6 -7 -8 -7 -7 -6 -6 -5 -4 -4 -5 -5 -5 -6 -6 -5 -4 -3 -3 -2 -2 -2 -2 -2 -3
-12 -12 -12 -12 -12 -12 -12 -11 -12 -12 -11 -10 -10 -9 -8 -8 -8 -8 -8 -7 -7 -7 -7 -7 -6 -6 -6 -5 -5 -4 -5 -5 -6 -6 -4 -6 -3 -3 -3 -2 -3 -3 -2 -2
-13 -13 -13 -13 -13 -13 -12 -12 -12 -13 -12 -10 -10 -10 -9 -9 -8 -8 -8 -8 -7 -7 -7 -7 -7 -7 -6 -6 -6 -6 -5 -6 -6 -6 -6 -4 -4 -4 -3 -4 -3 -3 -3 -3
-13 -13 -13 -13 -13 -13 -13 -13 -13 -13 -12 -10 -10 -10 -10 -9 -8 -8 -8 -8 -8 -8 -8 -7 -7 -7 -7 -6 -6 -6 -5 -5 -5 -6 -6 -6 -4 -4 -4 -4 -4 -4 -4 -4
-13 -13 -13 -14 -14 -14 -14 -13 -13 -13 -13 -11 -10 -10 -9 -9 -9 -8 -8 -8 -8 -7 -7 -7 -7 -7 -7 -6 -6 -7 -7 -6 -5 -5 -4 -4 -4 -4 -4 -4 -4 -4 -4 -5
-14 -14 -14 -14 -14 -14 -14 -13 -13 -13 -13 -12 -10 -8 -8 -9 -8 -9 -9 -8 -8 -8 -8 -8 -8 -8 -8 -7 -7 -7 -6 -5 -5 -5 -5 -5 -5 -5 -5 -5 -5 -5 -5 -6
-14 -14 -14 -14 -14 -14 -14 -14 -13 -13 -13 -13 -9 -9 -8 -8 -8 -8 -8 -8 -8 -8 -8 -8 -8 -8 -7 -7 -7 -7 -6 -6 -6 -5 -5 -5 -5 -5 -5 -5 -5 -5 -6 -6
-14 -14 -14 -14 -14 -14 -14 -14 -13 -13 -13 -12 -10 -8 -8 -8 -7 -8 -8 -7 -8 -8 -8 -8 -8 -8 -8 -8 -7 -7 -7 -7 -6 -6 -6 -5 -5 -5 -5 -5 -6 -6 -6 -7
-14 -14 -14 -14 -14 -14 -14 -14 -13 -13 -13 -12 -11 -9 -8 -8 -8 -8 -8 -9 -9 -9 -9 -8 -8 -8 -8 -8 -8 -7 -7 -7 -7 -7 -6 -7 -6 -7 -6 -6 -7 -6 -7 -7
-14 -14 -14 -14 -14 -14 -14 -13 -13 -13 -13 -13 -12 -10 -9 -8 -8 -8 -9 -9 -9 -9 -9 -9 -9 -8 -8 -8 -8 -8 -7 -7 -7 -7 -7 -6 -7 -7 -7 -7 -7 -7 -7 -7
-15 -15 -14 -14 -14 -14 -13 -13 -13 -12 -12 -13 -11 -9 -9 -9 -9 -9 -9 -9 -9 -9 -9 -9 -9 -8 -9 -8 -7 -6 -6 -6 -7 -7 -7 -7 -7 -7 -7 -6 -7 -7 -7 -6
-15 -15 -15 -15 -15 -13 -12 -13 -12 -11 -11 -11 -10 -9 -9 -9 -9 -9 -10 -9 -10 -9 -9 -8 -8 -8 -8 -6 -7 -7 -7 -7 -7 -7 -7 -7 -7 -6 -6 -6 -7 -7 -6 -7
-15 -15 -15 -14 -13 -13 -13 -13 -12 -11 -10 -10 -10 -10 -9 -9 -9 -10 -9 -9 -9 -9 -8 -8 -8 -7 -6 -7 -7 -7 -7 -7 -7 -6 -6 -6 -7 -6 -6 -7 -7 -7 -8 -8
-15 -14 -13 -13 -12 -13 -13 -10 -10 -10 -10 -10 -10 -10 -8 -9 -8 -8 -9 -9 -9 -9 -9 -9 -8 -7 -6 -7 -7 -8 -7 -7 -8 -8 -7 -7 -7 -7 -7 -7 -7 -8 -8 -8
-13 -13 -12 -12 -12 -11 -11 -11 -11 -11 -11 -10 -10 -8 -8 -8 -9 -9 -9 -9 -9 -9 -9 -10 -9 -7 -7 -7 -7 -8 -7 -8 -7 -7 -7 -7 -7 -7 -7 -7 -7 -8 -8 -8
-12 -12 -11 -11 -12 -12 -11 -10 -10 -9 -9 -9 -9 -9 -9 -9 -9 -9 -9 -9 -9 -10 -10 -9 -8 -8 -7 -7 -8 -8 -8 -8 -8 -8 -7 -7 -7 -6 -6 -6 -7 -7 -8 -8
-11 -11 -11 -10 -10 -10 -10 -9 -8 -9 -8 -8 -9 -8 -9 -9 -9 -9 -10 -10 -10 -10 -10 -8 -8 -8 -9 -9 -9 -8 -8 -8 -8 -8 -8 -7 -6 -6 -6 -6 -6 -7 -8 -8
-9 -9 -9 -11 -11 -9 -9 -9 -8 -8 -9 -9 -9 -9 -9 -9 -10 -10 -10 -11 -10 -10 -9 -9 -9 -9 -9 -9 -9 -9 -9 -9 -9 -8 -8 -7 -7 -7 -6 -7 -7 -8 -8 -8
-9 -9 -9 -10 -10 -10 -9 -9 -9 -9 -9 -9 -10 -10 -10 -10 -10 -11 -10 -10 -9 -9 -9 -9 -9 -9 -9 -9 -9 -9 -9 -9 -9 -9 -8 -8 -8 -8 -8 -8 -9 -8 -8 -8
-10 -11 -10 -10 -10 -10 -10 -10 -10 -10 -10 -10 -11 -11 -11 -11 -11 -10 -10 -9 -8 -9 -10 -10 -9 -9 -10 -9 -9 -9 -10 -9 -9 -9 -9 -9 -9 -9 -9 -9 -9 -9 -9 -9

GFSNW_700_temp_165.txt.gz
Temp
-8 -7 -7 -7 -7 -8 -8 -8 -8 -7 -7 -8 -8 -7 -6 -6 -5 -6 -5 -5 -5 -5 -5 -5 -4 -4 -4 -3 -4 -3 -5 -4 -3 -2 -1 -1 0 0 0 0 0 -0 0 1
-9 -8 -8 -8 -8 -9 -9 -9 -8 -8 -8 -8 -8 -7 -7 -6 -6 -6 -6 -6 -6 -6 -5 -6 -5 -5 -4 -4 -4 -5 -4 -5 -4 -2 -1 -1 -1 -1 -0 -0 -0 -0 -1 -1
-10 -9 -9 -9 -9 -10 -9 -9 -9 -9 -7 -8 -8 -7 -7 -7 -6 -6 -7 -7 -7 -6 -6 -6 -6 -6 -5 -5 -5 -5 -5 -5 -4 -3 -2 -2 -3 -2 -3 -3 -1 -1 -1 -1
-10 -10 -10 -10 -10 -10 -10 -10 -10 -9 -8 -8 -8 -8 -8 -7 -7 -7 -8 -7 -7 -7 -7 -7 -7 -6 -6 -6 -5 -5 -6 -6 -6 -5 -5 -5 -5 -5 -3 -4 -3 -3 -2 -1
-11 -11 -10 -10 -10 -10 -10 -11 -10 -10 -9 -8 -9 -8 -8 -8 -8 -8 -8 -8 -7 -7 -7 -7 -7 -7 -7 -7 -6 -6 -6 -6 -6 -5 -4 -5 -5 -5 -4 -3 -3 -3 -2 -1
-11 -11 -11 -11 -11 -11 -10 -10 -10 -9 -9 -9 -9 -9 -9 -8 -8 -8 -8 -8 -8 -8 -6 -8 -8 -8 -7 -7 -7 -7 -7 -7 -7 -6 -5 -5 -5 -3 -2 -2 -2 -3 -3 -2
-12 -11 -11 -11 -11 -11 -11 -10 -11 -10 -9 -10 -9 -9 -9 -9 -9 -9 -9 -8 -8 -7 -8 -8 -7 -7 -7 -7 -6 -6 -7 -7 -7 -6 -6 -5 -3 -3 -2 -3 -2 -3 -3 -3
-12 -12 -12 -12 -12 -11 -11 -11 -11 -11 -11 -10 -9 -10 -10 -10 -10 -10 -9 -8 -8 -8 -8 -8 -8 -7 -7 -5 -5 -5 -6 -6 -7 -6 -5 -4 -3 -3 -2 -2 -1 -2 -2 -2
-12 -12 -12 -12 -12 -12 -12 -11 -12 -11 -11 -10 -10 -10 -10 -9 -9 -8 -8 -8 -8 -9 -8 -8 -8 -8 -7 -6 -6 -6 -5 -7 -7 -6 -6 -5 -3 -3 -3 -3 -3 -2 -2 -3
-12 -12 -12 -12 -13 -13 -13 -12 -12 -12 -11 -11 -11 -10 -10 -10 -10 -9 -9 -9 -9 -8 -8 -8 -8 -8 -7 -7 -7 -6 -6 -7 -7 -6 -6 -5 -4 -4 -4 -4 -3 -3 -3 -2
-12 -12 -12 -12 -12 -13 -13 -13 -12 -12 -11 -11 -11 -11 -11 -10 -10 -9 -10 -10 -9 -9 -8 -8 -8 -7 -7 -7 -7 -6 -7 -7 -7 -6 -6 -5 -5 -5 -6 -4 -4 -4 -3 -3
-12 -12 -13 -13 -13 -13 -13 -13 -13 -13 -13 -12 -11 -11 -11 -11 -11 -10 -11 -11 -10 -9 -10 -10 -8 -8 -8 -7 -8 -7 -7 -7 -6 -6 -5 -6 -6 -6 -6 -6 -4 -4 -4 -4
-13 -13 -13 -13 -13 -13 -13 -13 -13 -13 -13 -13 -13 -12 -12 -12 -12 -11 -11 -9 -9 -9 -10 -10 -10 -8 -7 -7 -7 -7 -7 -7 -7 -7 -7 -7 -7 -7 -6 -6 -6 -5 -4 -4
-13 -13 -13 -13 -13 -13 -13 -13 -13 -14 -14 -14 -13 -13 -12 -12 -12 -11 -11 -10 -10 -10 -10 -10 -10 -9 -8 -8 -7 -8 -8 -8 -8 -7 -7 -7 -7 -7 -7 -7 -5 -5 -5 -5
-13 -13 -13 -13 -13 -14 -14 -14 -14 -14 -14 -13 -13 -13 -12 -12 -12 -11 -11 -10 -10 -9 -10 -10 -9 -9 -9 -9 -8 -8 -7 -7 -7 -7 -7 -7 -7 -7 -7 -6 -6 -6 -6 -6
-13 -13 -13 -13 -14 -14 -14 -14 -14 -14 -14 -14 -14 -13 -12 -11 -12 -11 -10 -9 -10 -10 -9 -10 -10 -9 -9 -9 -9 -7 -6 -7 -7 -7 -8 -8 -7 -7 -7 -7 -7 -6 -6 -7
-13 -14 -13 -14 -14 -14 -14 -14 -14 -13 -14 -14 -14 -13 -11 -11 -11 -11 -10 -9 -10 -10 -11 -10 -10 -9 -9 -9 -8 -5 -6 -7 -7 -7 -7 -7 -7 -7 -7 -7 -7 -7 -6 -6
-14 -13 -14 -14 -14 -14 -14 -14 -14 -14 -14 -14 -14 -13 -12 -12 -11 -10 -10 -10 -10 -11 -11 -10 -9 -9 -9 -9 -6 -7 -7 -7 -7 -7 -7 -7 -7 -7 -7 -7 -7 -7 -7 -7
-14 -14 -14 -14 -14 -14 -14 -15 -14 -14 -14 -14 -14 -13 -12 -11 -10 -10 -10 -10 -10 -10 -10 -10 -9 -9 -8 -6 -7 -7 -7 -6 -6 -7 -7 -7 -7 -7 -7 -7 -7 -7 -7 -7
-14 -14 -14 -14 -14 -14 -14 -14 -14 -14 -14 -14 -13 -13 -12 -12 -11 -9 -9 -9 -9 -9 -9 -9 -9 -8 -6 -7 -7 -7 -7 -7 -7 -7 -7 -7 -8 -8 -7 -8 -8 -8 -7 -7
-14 -14 -14 -14 -14 -14 -14 -14 -14 -13 -14 -12 -11 -11 -12 -11 -11 -10 -9 -10 -9 -9 -9 -9 -9 -8 -6 -6 -6 -7 -7 -7 -7 -7 -7 -8 -8 -8 -8 -8 -8 -8 -7 -7
-14 -14 -14 -14 -14 -14 -14 -13 -13 -13 -12 -11 -10 -10 -11 -11 -11 -10 -10 -9 -9 -9 -9 -10 -10 -7 -6 -6 -7 -7 -7 -8 -7 -8 -8 -8 -9 -8 -8 -8 -8 -7 -7 -7
-14 -14 -14 -14 -14 -13 -13 -12 -12 -12 -11 -10 -10 -10 -11 -11 -10 -11 -9 -9 -9 -9 -9 -9 -8 -7 -7 -7 -8 -8 -8 -8 -8 -9 -9 -9 -9 -9 -9 -8 -8 -7 -7 -7
-14 -14 -13 -13 -12 -12 -12 -11 -11 -11 -11 -11 -10 -11 -10 -10 -10 -9 -9 -9 -9 -10 -10 -8 -7 -7 -8 -8 -8 -8 -8 -9 -9 -9 -9 -9 -9 -9 -9 -9 -8 -8 -7 -7
-13 -13 -13 -12 -12 -12 -12 -11 -11 -10 -10 -11 -11 -10 -10 -10 -10 -9 -9 -9 -9 -9 -8 -7 -7 -8 -8 -8 -8 -9 -9 -9 -9 -9 -9 -9 -9 -9 -9 -9 -9 -8 -7 -7
-13 -13 -13 -13 -12 -12 -12 -11 -10 -10 -10 -10 -10 -11 -10 -10 -9 -9 -9 -10 -9 -8 -8 -8 -8 -8 -8 -8 -9 -9 -10 -10 -10 -10 -10 -10 -10 -9 -9 -9 -9 -8 -8 -8
-13 -12 -12 -12 -12 -12 -12 -11 -11 -11 -11 -11 -11 -11 -10 -10 -10 -10 -10 -10 -9 -9 -9 -9 -8 -8 -8 -9 -9 -9 -10 -10 -10 -10 -10 -9 -9 -9 -9 -9 -9 -9 -9 -9